Location: *
(46.0770°N, 1.6444°E)
Time: 06:02:37
(UTC+00:00)

CZ-2C R/B - Visible Passes

Search period start: 11 December 2019 00:00
Search period end: 21 December 2019 00:00
Orbit: 784 x 871 km, 98.3° (Epoch: 10 December)

Date Brightness Start Highest point End Pass type
(mag) Time Alt. Az. Time Alt. Az. Time Alt. Az.
11 Dec 5.3 05:48:23 10° ENE 05:50:09 12° NE 05:51:54 10° NE visible
13 Dec 4.1 06:47:50 10° SE 06:52:35 35° ENE 06:57:17 10° N visible
14 Dec 4.6 06:29:55 10° ESE 06:34:11 26° ENE 06:38:24 10° N visible
15 Dec 5.0 06:12:17 10° ESE 06:15:49 19° ENE 06:19:21 10° NNE visible
16 Dec 5.1 05:55:03 10° E 05:57:31 14° NE 05:59:59 10° NNE visible
18 Dec 3.8 06:55:10 10° SE 07:00:02 41° ENE 07:04:52 10° N visible
19 Dec 4.3 06:37:09 10° ESE 06:41:36 30° ENE 06:46:02 10° N visible
20 Dec 4.8 06:19:22 10° ESE 06:23:13 22° ENE 06:27:04 10° NNE visible
